Location: Caltech
(34.1382°N, 118.1253°W)
Time: 16:38:12
(UTC-07:00)

Oscar 10/S400 - Visible Passes

Search period start: 18 April 2014 00:00
Search period end: 28 April 2014 00:00
Orbit: 4094 x 35353 km, 26.4° (Epoch: 11 April)

Date Brightness Start Highest point End Pass type
(mag) Time Alt. Az. Time Alt. Az. Time Alt. Az.
19 Apr ? 12:00:09 10° WNW 13:44:41 43° WSW 18:38:53 10° WSW visible
20 Apr ? 11:11:24 10° W 12:58:36 51° WSW 18:54:30 10° WSW visible
21 Apr ? 10:24:01 10° W 12:09:51 60° WSW 19:11:50 10° SW visible
22 Apr ? 09:37:32 10° W 11:16:28 67° SW 19:24:27 10° SSW visible
